This demonstration page uses our WeatherBlox Daily Observations layout. Learn more.

Left ArrowRight Arrow

44.89941, -97.11507

Hourly Observations for May 23, 2019

Temp ( °F °C ) Dew Point ( °F °C ) Humidity (%) Winds ( mph kmh ) Pressure ( in mb ) Visibility ( mi km ) Precip ( " mm )
12:10 am 00:10 Mostly Cloudy 49 9.4 45 7.2 86 86 WNW 13 20 29.82 1010 10 16 0.00 0.00
12:53 am 00:53 Cloudy 49 9.4 45 7.2 86 86 WNW 10 17 29.83 1010 10 16 0.00 0.00
1:06 am 01:06 Cloudy 49 9.4 45 7.2 86 86 WNW 13 20 29.83 1010 10 16 0.00 0.00
1:38 am 01:38 Cloudy 48 8.9 45 7.2 89 89 WNW 14 22 29.85 1011 10 16 0.00 0.00
1:49 am 01:49 Cloudy 48 9 45 7 87 87 WNW 12 19 29.85 1011 10 16 0.00 0.00
1:50 am 01:50 Cloudy 48 8.9 45 7.2 89 89 WNW 12 19 29.85 1011 10 16 0.00 0.00
2:36 am 02:36 Mostly Cloudy 48 8.9 45 7.2 89 89 WNW 14 22 29.87 1011 10 16 0.00 0.00
2:53 am 02:53 Cloudy 48 8.9 44 6.7 86 86 WNW 12 19 29.88 1012 10 16 0.00 0.00
3:09 am 03:09 Cloudy 48 8.9 44 6.7 86 86 NW 13 20 29.88 1012 10 16 0.00 0.00
3:53 am 03:53 Mostly Cloudy 48 8.9 44 6.7 86 86 WNW 10 17 29.91 1013 10 16 0.00 0.00
4:51 am 04:51 Cloudy 46 8 45 7 93 93 W 9 15 29.95 1014 10 16 0.00 0.00
4:53 am 04:53 Cloudy 47 8.3 44 6.7 90 90 W 9 15 29.95 1014 10 16 0.00 0.00
5:23 am 05:23 Cloudy 47 8.3 44 6.7 90 90 W 9 15 29.97 1015 10 16 0.00 0.00
5:53 am 05:53 Mostly Cloudy 46 7.8 44 6.7 93 93 W 8 13 29.97 1015 10 16 0.00 0.00
6:00 am 06:00 Partly Cloudy 46 7.8 44 6.7 93 93 W 7 11 29.98 1015 10 16 0.00 0.00
6:19 am 06:19 Mostly Cloudy 46 7.8 44 6.7 93 93 W 12 19 29.99 1016 10 16 0.00 0.00
6:53 am 06:53 Cloudy 47 8.3 43 6.1 86 86 WNW 13 20 30.01 1016 10 16 0.00 0.00
7:06 am 07:06 Cloudy 47 8.3 43 6.1 86 86 NW 10 17 30.01 1016 10 16 0.00 0.00
7:48 am 07:48 Cloudy 46 8 43 6 87 87 NW 10 17 30.04 1017 10 16 0.00 0.00
7:53 am 07:53 Cloudy 47 8.3 43 6.1 86 86 NW 12 19 30.04 1017 10 16 0.00 0.00
8:26 am 08:26 Cloudy 48 8.9 42 5.6 80 80 WNW 9 15 30.04 1017 10 16 0.00 0.00
8:53 am 08:53 Mostly Cloudy 50 10 42 5.6 74 74 NW 9 15 30.03 1017 10 16 0.00 0.00
9:53 am 09:53 Cloudy 50 10 43 6.1 77 77 NW 12 19 30.06 1018 10 16 0.00 0.00
10:53 am 10:53 Cloudy 52 11.1 43 6.1 72 72 NW 14 22 30.08 1019 10 16 0.00 0.00
11:53 am 11:53 Cloudy 53 11.7 43 6.1 69 69 NNW 17 28 30.08 1019 10 16 0.00 0.00
12:53 pm 12:53 Cloudy 54 12.2 43 6.1 67 67 NNW 15 24 30.07 1018 10 16 0.00 0.00
1:53 pm 13:53 Cloudy 52 11.1 44 6.7 75 75 NNW 16 26 30.10 1019 10 16 0.00 0.00
2:53 pm 14:53 Cloudy 52 11.1 44 6.7 75 75 NW 8 13 30.12 1020 10 16 0.00 0.00
3:53 pm 15:53 Cloudy 53 11.7 43 6.1 69 69 Calm 30.16 1021 10 16 0.00 0.00
4:22 pm 16:22 Cloudy 54 12.2 44 6.7 69 69 N 8 13 30.09 1019 10 16 0.00 0.00
4:30 pm 16:30 Cloudy 54 12.2 45 7.2 72 72 N 9 15 30.08 1019 10 16 0.00 0.00
4:53 pm 16:53 Cloudy 53 11.7 43 6.1 69 69 Calm 30.14 1021 10 16 0.00 0.00
5:53 pm 17:53 Cloudy 53 11.7 44 6.7 72 72 Calm 30.14 1021 10 16 0.00 0.00
6:07 pm 18:07 Cloudy 53 11.7 43 6.1 69 69 Calm 30.11 1020 10 16 0.00 0.00
6:53 pm 18:53 Partly Cloudy 54 12.2 45 7.2 72 72 NNE 8 13 30.07 1018 10 16 0.00 0.00
7:43 pm 19:43 Mostly Cloudy 52 11.1 44 6.7 75 75 ENE 9 15 30.05 1018 10 16 0.00 0.00
7:53 pm 19:53 Cloudy 52 11.1 45 7.2 77 77 ENE 9 15 30.07 1018 10 16 0.00 0.00
8:40 pm 20:40 Partly Cloudy 51 10.6 44 6.7 77 77 ENE 9 15 30.04 1017 10 16 0.00 0.00
8:53 pm 20:53 Sunny 51 10.6 44 6.7 77 77 E 7 11 30.05 1018 10 16 0.00 0.00
9:53 pm 21:53 Mostly Clear 49 9.4 44 6.7 83 83 E 7 11 30.06 1018 10 16 0.00 0.00
10:53 pm 22:53 Partly Cloudy 49 9.4 44 6.7 83 83 E 7 11 30.07 1018 10 16 0.00 0.00
11:53 pm 23:53 Mostly Clear 49 9.4 44 6.7 83 83 E 8 13 30.03 1017 10 16 0.00 0.00

Powered by AerisWeather